Regional Weather Roundup
Issued by NWS

Home | Current Version | Previous Version | Text Only | Print | Product List | Glossary Off
Versions: 1 2 3 4 5 6 7 8 9 10 11 12 13 14 15 16 17 18 19 20 21 22 23 24 25 26 27 28 29 30 31 32 33 34 35 36 37 38 39 40 41 42 43 44 45 46 47 48 49 50

000
ASUS43 KMKX 292011
RWRWI

WISCONSIN REGIONAL WEATHER ROUNDUP
NATIONAL WEATHER SERVICE MILWAUKEE/SULLIVAN WI
300 PM CDT SAT APR 29 2017

NOTE: "FAIR" INDICATES FEW OR NO CLOUDS BELOW 12,000 FEET WITH NO
SIGNIFICANT WEATHER AND/OR OBSTRUCTIONS TO VISIBILITY.

WIZ001-002-006>008-014>016-023>028-292100-
NORTHWEST WISCONSIN

CITY           SKY/WX    TMP DP  RH WIND       PRES   REMARKS
SUPERIOR ARPT  CLOUDY    46  26  45 E12       30.37R
ASHLAND        SUNNY     46  22  38 N15       30.38R
HAYWARD        PTSUNNY   52  21  29 E8        30.32R
SIREN          MOSUNNY   53  17  23 E6        30.31R
CUMBERLAND     PTSUNNY   50  23  34 NE14      30.30R
RICE LAKE      PTSUNNY   54  24  31 NE18      30.29F
CHETEK         NOT AVBL
LADYSMITH      CLOUDY    53  26  35 NE7       30.30S
EAU CLAIRE     CLOUDY    53  26  35 NE10      30.27R
MENOMONIE      CLOUDY    54  25  32 NE12G21   30.29R
NEW RICHMOND   PTSUNNY   53  20  27 NE12      30.30R
OSCEOLA        PTSUNNY   55  23  29 NE10G17   30.33R
$$

WIZ003>005-009-010-017-018-292100-
NORTH CENTRAL WISCONSIN

CITY           SKY/WX    TMP DP  RH WIND       PRES   REMARKS
MANITOWISH WTR CLOUDY    48  22  36 NE7       30.31
ARBOR VITAE    MOSUNNY   49  23  35 NE8G16    30.30S
WOODRUFF       MOSUNNY   49  23  35 NE8G16    30.30S
RHINELANDER    CLOUDY    50  24  36 E6        30.30S
EAGLE RIVER    CLOUDY    49  21  33 NE12      30.30F
LAND O LAKES   CLOUDY    48  20  32 NE7       30.33S
PHILLIPS       MOSUNNY   49  25  38 NE7       30.28F
TOMAHAWK       CLOUDY    50  24  37 NE5       30.29S
MEDFORD        PTSUNNY   50  28  42 NE13      30.26S
MERRILL        CLOUDY    51  28  40 E10       30.28S
$$

WIZ029-030-035-036-043>047-292100-
CENTRAL WISCONSIN

CITY           SKY/WX    TMP DP  RH WIND       PRES   REMARKS
WAUSAU         CLOUDY    51  27  39 NE10G22   30.25F
MOSINEE        CLOUDY    52  27  37 E9        30.27F
MARSHFIELD     PTSUNNY   50  26  39 E14       30.25F
STEVENS POINT  CLOUDY    48  27  43 E8G16     30.27S
WAUPACA        CLOUDY    50  30  46 E8G16     30.29S
WAUTOMA        CLOUDY    47  29  49 E12       30.28R
WISC RAPIDS    CLOUDY    50  28  42 SE9       30.27F
CAMP DOUGLAS   CLOUDY    48  30  49 E12       30.26R
$$

WIZ011>013-019>022-031-037>040-048>050-292100-
NORTHEAST WISCONSIN

CITY           SKY/WX    TMP DP  RH WIND       PRES   REMARKS
ANTIGO         CLOUDY    50  27  41 E12G17    30.28S
SHAWANO        CLOUDY    51  32  47 E8        30.29F
OCONTO         CLOUDY    46  27  48 E12       30.30S
STURGEON BAY   CLOUDY    45  30  55 NE8       30.31F
GREEN BAY      CLOUDY    48  32  53 NE18      30.28F
MANITOWOC      CLOUDY    42  29  59 NE14G22   30.30F
APPLETON       CLOUDY    46  25  42 NE20G26   30.27F
CLINTONVILLE   CLOUDY    50  32  50 E10       30.28F
OSHKOSH        CLOUDY    46  32  58 NE10      30.28S
$$

WIZ032>034-041-042-053>061-292100-
SOUTHWEST WISCONSIN

CITY           SKY/WX    TMP DP  RH WIND       PRES   REMARKS
LA CROSSE      CLOUDY    50  28  42 E8        30.26R
SPARTA         CLOUDY    48  30  49 E9        30.27S
VIROQUA        CLOUDY    46  31  56 NE10G17   30.23F
BOSCOBEL       CLOUDY    48  30  49 NE9       30.20F
PRAIRIE DU CHI CLOUDY    46  29  51 N7        30.19F
PLATTEVILLE    PTSUNNY   44  37  78 NE17G23   30.17R
$$

WIZ056-057-062-063-064-067-068-292100-
SOUTH CENTRAL WISCONSIN

CITY           SKY/WX    TMP DP  RH WIND       PRES   REMARKS
REEDSBURG      CLOUDY    45  30  55 NE12G20   30.26
BARABOO/DELLS  CLOUDY    44  29  54 NE15      30.24F
LONE ROCK      CLOUDY    46  31  55 NE15G23   30.21F HAZE
MINERAL POINT  CLOUDY    45  36  70 NE18G25   30.17R
MADISON        CLOUDY    44  32  62 NE17G25   30.18F
MIDDLETON      CLOUDY    45  35  68 NE18G24   30.19F
WATERTOWN      CLOUDY    42  31  66 NE14G21   30.21F
MONROE         CLOUDY    43  32  65 NE25G32   30.13F
JANESVILLE     LGT RAIN  45  34  65 NE16G26   30.15F
$$

WIZ051-052-058>065-066-070>072-292100-
SOUTHEAST WISCONSIN

CITY           SKY/WX    TMP DP  RH WIND       PRES   REMARKS
MILWAUKEE      CLOUDY    40  32  73 N22G33    30.19F WCI  30
WAUKESHA       MOSUNNY   39  28  65 NE15G25   30.21F WCI  31
MILWAUKEE/TIMM MOSUNNY   39  28  65 NE12G24   30.24F WCI  32
RACINE         CLOUDY    39  31  72 N25G31    30.20F WCI  28
KENOSHA        LGT RAIN  39  32  76 NE18G26   30.18F WCI  30
FOND DU LAC    CLOUDY    46  31  55 NE13      30.27S
SHEBOYGAN      CLOUDY    41  34  76 NE20G26   30.28F
WEST BEND      PTSUNNY   39  32  75 NE14G23   30.25F WCI  31
JUNEAU         CLOUDY    43  32  66 NE10G20   30.24F
$$

LSZ147-162-292100-
LAKE SUPERIOR

STATION/POSITION TIME  TEMP    WIND        PRES    WAVE
                       AIR SEA DIR/SP/G            HT/PER
                 (UTC) (F)     (DEG/KT/KT) (MB)    (FT/S)
DEVILS ISLAND    2000   37      30/  3/  4 1030.6R
SAXON HARBOR     1940   40      30/  4/  5 1028.8R
$$

LMZ867-665-643>646-292100-
LAKE MICHIGAN

STATION/POSITION TIME  TEMP    WIND        PRES    WAVE
                       AIR SEA DIR/SP/G            HT/PER
                 (UTC) (F)     (DEG/KT/KT) (MB)    (FT/S)
CHAMBERS ISLAND  1940   44      40/ 10/ 14 1026.1S
N MID LAKE BUOY  1950   39 38  290/  4/  4 1027.9R   1
NORTHPORT PIER   1940   41     140/  3/  5 1026.4S
KEWAUNEE LAKESHO 1942   40      40/ 14/ 17 1025.8F
SHEBOYGAN LAKESH 2000   38      10/ 22/ 24 1025.8F
PORT WASHINGTON  1940   41      30/ 17/ 22 1025.7F
MILWAUKEE LAKESH 1950   39      20/ 19/ 23   N/A
S MID LAKE BUOY  1950   39 41   10/ 21/ 25 1021.6F   6/ 6
KENOSHA   LAKESH 2000   39      20/ 28/ 32 1021.7
$$

TC  - TEMPERATURE IN CELSIUS
VSB - VISIBILITY IN STATUTE MILES
WCI - WIND CHILL INDEX
HX  - HEAT INDEX




USA.gov is the U.S. government's official web portal to all federal, state and local government web resources and services.